CW2840 Weather Reports


time (UTC)temp
C
wind
direction
speed
KPH
gust
KPH
rain 1hr
cm
rain 24hr
cm
rain mn
cm
humidity
%
barometer
mb
20260510121735 22 90 0.0 3.2 0.00 0.03 0.00 91 1013.5
20260510120238 22 90 0.0 3.2 0.00 0.03 0.00 91 1013.2
20260510114737 22 90 0.0 4.8 0.00 0.03 0.00 91 1013.0
20260510113236 21 90 1.6 8.0 0.00 0.03 0.00 91 1012.8
20260510112432 21 94 3.2 8.0 0.00 0.03 0.00 91 1012.3
20260510110235 21 94 0.0 4.8 0.00 0.03 0.00 91 1011.7
20260510104732 21 94 0.0 3.2 0.00 0.03 0.00 91 1011.6
20260510103929 21 94 0.0 3.2 0.00 0.03 0.00 90 1011.4
20260510101732 21 94 0.0 4.8 0.00 0.03 0.00 90 1011.3
20260510100235 21 94 1.6 4.8 0.00 0.03 0.00 90 1011.2
20260510094732 20 94 0.0 3.2 0.00 0.03 0.00 90 1011.1
20260510093233 20 94 0.0 0.0 0.00 0.03 0.00 90 1011.0
20260510092422 21 94 0.0 3.2 0.00 0.03 0.00 90 1010.9
20260510090234 21 94 1.6 3.2 0.00 0.03 0.00 90 1010.8
20260510084731 20 94 0.0 3.2 0.00 0.03 0.00 90 1010.7
20260510083232 21 94 0.0 3.2 0.00 0.03 0.00 90 1010.9
20260510081731 21 94 0.0 3.2 0.00 0.03 0.00 90 1011.1
20260510080232 21 94 0.0 3.2 0.00 0.03 0.00 90 1011.2
20260510074730 21 94 0.0 3.2 0.00 0.03 0.00 90 1010.9
20260510073921 21 94 0.0 3.2 0.00 0.03 0.00 90 1010.9
20260510071729 21 94 0.0 3.2 0.00 0.03 0.00 89 1010.9
20260510070231 21 94 0.0 3.2 0.00 0.03 0.00 89 1011.1
20260510064729 21 94 1.6 3.2 0.00 0.03 0.00 89 1011.3
20260510063229 21 94 0.0 3.2 0.00 0.03 0.00 89 1011.2
20260510062428 21 94 0.0 0.0 0.00 0.03 0.00 89 1011.2
20260510060229 21 94 0.0 0.0 0.00 0.03 0.00 89 1011.4
20260510054727 21 94 0.0 3.2 0.00 0.03 0.00 89 1011.5
20260510053927 21 94 0.0 3.2 0.00 0.03 0.00 88 1011.4
20260510051726 21 94 0.0 3.2 0.00 0.03 0.00 88 1011.4
20260510050229 21 94 1.6 4.8 0.00 0.03 0.00 88 1011.5
20260510045426 21 94 0.0 3.2 0.00 0.03 0.03 87 1011.5
20260510043925 21 94 1.6 3.2 0.00 0.03 0.03 87 1011.6
20260510041727 21 94 0.0 3.2 0.00 0.03 0.03 86 1011.9
20260510040226 21 94 0.0 4.8 0.00 0.03 0.03 86 1011.8
20260510034724 21 94 3.2 4.8 0.03 0.00 0.03 85 1011.6
20260510033226 22 94 3.2 8.0 0.03 0.00 0.03 84 1011.7
20260510031725 22 94 3.2 11.3 0.03 0.00 0.03 83 1011.8
20260510030226 22 212 0.0 14.5 0.03 0.00 0.00 80 1012.0
20260510024724 23 111 6.4 29.0 0.00 0.00 0.00 73 1012.0
20260510023225 24 109 11.3 29.0 0.00 0.00 0.00 71 1011.4
20260510021723 26 103 16.1 25.7 0.00 0.00 0.00 70 1010.8
20260510020224 27 138 8.0 11.3 0.00 0.00 0.00 67 1010.0
20260510014722 27 188 3.2 8.0 0.00 0.00 0.00 66 1009.3
20260510014621 28 223 4.8 17.7 0.00 0.00 0.00 66 1009.3
20260510011722 28 127 1.6 4.8 0.00 0.00 0.00 68 1008.9
20260510010923 29 127 1.6 4.8 0.00 0.00 0.00 67 1008.6
20260510005426 29 127 1.6 3.2 0.00 0.00 0.00 68 1008.5
20260510003222 29 127 0.0 3.2 0.00 0.00 0.00 69 1008.3
20260510001720 29 127 0.0 3.2 0.00 0.00 0.00 69 1008.1
20260510000222 29 127 1.6 4.8 0.00 0.00 0.00 68 1008.0
20260509235415 29 127 0.0 3.2 0.00 0.00 0.00 67 1008.0
20260509233915 29 127 0.0 3.2 0.00 0.00 0.00 67 1008.1
20260509231719 30 127 0.0 8.0 0.00 0.00 0.00 65 1008.0
20260509230221 30 127 0.0 3.2 0.00 0.00 0.00 65 1007.8
20260509224718 30 127 0.0 4.8 0.00 0.00 0.00 63 1007.8
20260509223220 31 127 4.8 11.3 0.00 0.00 0.00 62 1007.9
20260509221718 31 128 6.4 11.3 0.00 0.00 0.00 61 1007.5
20260509220219 31 131 3.2 8.0 0.00 0.00 0.00 62 1007.5
20260509214717 31 131 4.8 8.0 0.00 0.00 0.00 63 1007.5
20260509213218 30 133 1.6 8.0 0.00 0.00 0.00 62 1007.7
20260509211716 31 135 3.2 11.3 0.00 0.00 0.00 63 1007.7
20260509210217 31 142 4.8 8.0 0.00 0.00 0.00 62 1007.9
20260509204715 30 157 0.0 11.3 0.00 0.00 0.00 64 1008.2
20260509203218 30 195 1.6 8.0 0.00 0.00 0.00 65 1008.2
20260509202420 30 285 3.2 11.3 0.00 0.00 0.00 62 1008.4
20260509200216 30 313 1.6 8.0 0.00 0.00 0.00 63 1008.8
20260509194715 30 226 0.0 11.3 0.00 0.00 0.00 66 1008.8
20260509193217 30 266 6.4 11.3 0.00 0.00 0.00 67 1009.0
20260509191714 30 176 3.2 11.3 0.00 0.00 0.00 68 1009.1
20260509190215 29 166 4.8 11.3 0.00 0.00 0.00 70 1009.3
20260509184714 29 155 4.8 11.3 0.00 0.00 0.00 69 1009.5
20260509183213 28 212 1.6 8.0 0.00 0.00 0.00 71 1009.8
20260509183104 27 212 0.0 11.3 0.00 0.00 0.00 73 1010.0
20260509180918 28 210 1.6 8.0 0.00 0.00 0.00 71 1010.1
20260509174712 28 161 3.2 11.3 0.00 0.00 0.00 73 1010.4
20260509173213 27 330 3.2 14.5 0.00 0.00 0.00 72 1010.4
20260509171711 27 157 1.6 8.0 0.00 0.00 0.00 74 1010.3
20260509170213 28 157 4.8 8.0 0.00 0.00 0.00 74 1010.2
20260509164711 27 164 0.0 8.0 0.00 0.00 0.00 78 1010.2
20260509163211 26 164 3.2 8.0 0.00 0.00 0.00 80 1010.2
20260509161710 26 117 0.0 8.0 0.00 0.00 0.00 80 1010.4
20260509160211 26 145 1.6 4.8 0.00 0.00 0.00 82 1010.6
20260509155404 25 145 3.2 4.8 0.00 0.00 0.00 83 1010.7
20260509153210 25 140 3.2 4.8 0.00 0.00 0.00 86 1010.8
20260509151709 25 140 0.0 4.8 0.00 0.00 0.00 87 1010.8
20260509150907 24 140 3.2 8.0 0.00 0.00 0.00 88 1010.6
20260509144708 24 140 0.0 4.8 0.00 0.00 0.00 89 1010.5
20260509143209 23 140 0.0 4.8 0.00 0.00 0.00 89 1010.4
20260509141709 23 140 1.6 3.2 0.00 0.00 0.00 90 1010.2
20260509140209 23 140 3.2 4.8 0.00 0.00 0.00 90 1010.0
20260509134707 23 140 1.6 4.8 0.00 0.00 0.00 90 1010.3
20260509133210 23 140 0.0 3.2 0.00 0.00 0.00 91 1010.6
20260509131707 23 140 1.6 3.2 0.00 0.00 0.00 91 1010.6
20260509130207 23 140 0.0 3.2 0.00 0.00 0.00 91 1010.6
20260509124704 22 140 1.6 3.2 0.00 0.00 0.00 91 1010.7